Date String (YYYY-MM-DD hh:mm:ss) UTC,Instrument flags,absolute air pressure of the measurement (hPa),sample flow rate (lpm),inlet stack bypass flow (lpm),air temperature of the measurement (°C),ambient temperature measured by the external sensor (°C),aerosol sample conditioner tube jacket temperature (°C),OPC LED temperature (°C),internal box temperature (°C),relative humidity of the measurement (%),span deviation,mass concentration of particles derived from Lorenz-Mie calculation of OPC scattering (μg/m³),mass concentration of particles derived from Lorenz-Mie calculation of OPC scattering (μg/m³),mass concentration of particles derived from Lorenz-Mie calculation of OPC scattering (μg/m³)
DateTimeUTC,F1_M11,P_M11,Q1_M11,Q2_M11,T1_M11,T2_M11,T3_M11,T4_M11,T5_M11,U1_M11,ZSPAN_M11,X0_M11,X2_M11,X1_M11
2023-09-30 19:00:00,SystemResetWarning,0827.9,5.00,000.00,028.3,024.6,000.0,036.7,030.0,19.8,0000.0,0021.24,0007.02,0005.30
2023-09-30 19:01:00,SystemResetWarning,0827.8,5.01,000.00,028.3,024.5,000.0,036.7,029.9,20.0,0000.0,0021.98,0007.02,0005.30
2023-09-30 19:02:00,SystemResetWarning,0827.8,5.01,000.00,028.2,024.8,000.0,036.7,029.8,20.2,0000.0,0022.15,0007.02,0005.29
2023-09-30 19:03:00,SystemResetWarning,0827.8,4.99,000.00,028.2,025.2,000.0,036.7,029.8,20.4,0000.0,0021.94,0007.01,0005.29
2023-09-30 19:04:00,SystemResetWarning,0827.8,4.99,000.00,028.2,025.7,000.0,036.7,029.9,20.4,0000.0,0020.93,0006.93,0005.29
2023-09-30 19:05:00,SystemResetWarning,0827.8,5.01,000.00,028.2,026.0,000.0,036.7,029.9,20.1,-001.2,0021.12,0006.94,0005.30
2023-09-30 19:06:00,SystemResetWarning,0827.8,5.00,000.00,028.2,026.4,000.0,036.7,030.0,20.6,-000.6,0020.59,0006.92,0005.31
2023-09-30 19:07:00,SystemResetWarning,0827.7,5.00,000.00,028.3,026.7,000.0,036.7,030.1,20.4,-000.3,0020.05,0006.86,0005.32
2023-09-30 19:08:00,SystemResetWarning,0827.7,4.99,000.00,028.3,027.0,000.0,036.7,030.2,20.4,0000.0,0020.52,0006.91,0005.34
2023-09-30 19:09:00,SystemResetWarning,0827.7,5.00,000.00,028.4,027.2,000.0,036.8,030.2,20.5,0000.2,0020.71,0006.89,0005.36
2023-09-30 19:10:00,SystemResetWarning,0827.7,5.00,000.00,028.4,027.4,000.0,036.8,030.3,20.4,0000.0,0020.05,0006.87,0005.36
2023-09-30 19:11:00,SystemResetWarning,0827.7,4.98,000.00,028.4,026.6,000.0,036.8,030.3,20.4,0000.0,0020.37,0006.86,0005.36
2023-09-30 19:12:00,SystemResetWarning,0827.7,5.00,000.00,028.4,025.0,000.0,036.7,030.1,20.6,0000.0,0020.47,0006.92,0005.37
2023-09-30 19:13:00,SystemResetWarning,0827.7,5.01,000.00,028.3,024.6,000.0,036.7,030.0,21.0,0000.0,0019.34,0006.95,0005.40
2023-09-30 19:14:00,SystemResetWarning,0827.7,5.01,000.00,028.3,024.9,000.0,036.7,029.9,21.1,0000.0,0018.96,0006.96,0005.42
2023-09-30 19:15:00,SystemResetWarning,0827.6,5.00,000.00,028.2,025.3,000.0,036.7,029.8,20.9,0000.0,0019.76,0007.04,0005.43
2023-09-30 19:16:00,SystemResetWarning,0827.6,5.00,000.00,028.2,025.7,000.0,036.7,029.9,20.5,0000.0,0020.07,0007.04,0005.43
2023-09-30 19:17:00,SystemResetWarning,0827.5,5.00,000.00,028.2,026.1,000.0,036.7,030.0,20.6,0000.0,0020.46,0007.03,0005.45
2023-09-30 19:18:00,SystemResetWarning,0827.5,5.00,000.00,028.2,026.5,000.0,036.7,030.0,20.8,0000.0,0020.20,0007.03,0005.44
2023-09-30 19:19:00,SystemResetWarning,0827.5,5.00,000.00,028.3,026.8,000.0,036.7,030.1,20.4,0000.0,0020.97,0007.09,0005.44
2023-09-30 19:20:00,SystemResetWarning,0827.5,5.00,000.00,028.3,027.0,000.0,036.7,030.2,21.0,0000.0,0020.01,0007.09,0005.43
2023-09-30 19:21:00,SystemResetWarning,0827.5,5.00,000.00,028.4,027.2,000.0,036.8,030.3,20.8,0000.0,0019.57,0007.05,0005.43
2023-09-30 19:22:00,SystemResetWarning,0827.8,4.99,000.00,028.4,026.8,000.0,036.8,030.3,20.6,0000.0,0019.35,0007.07,0005.43
2023-09-30 19:23:00,SystemResetWarning,0827.5,5.00,000.00,028.4,025.1,000.0,036.7,030.1,20.9,0000.0,0018.87,0007.04,0005.43
2023-09-30 19:24:00,SystemResetWarning,0827.4,5.01,000.00,028.3,024.5,000.0,036.6,030.0,20.6,0000.0,0018.68,0007.00,0005.41
2023-09-30 19:25:00,SystemResetWarning,0827.4,5.01,000.00,028.3,024.8,000.0,036.6,029.9,20.4,0000.0,0018.04,0006.96,0005.40
2023-09-30 19:26:00,SystemResetWarning,0827.4,5.00,000.00,028.2,025.2,000.0,036.7,029.8,20.3,0000.0,0017.12,0006.90,0005.40
2023-09-30 19:27:00,SystemResetWarning,0827.4,5.00,000.00,028.2,025.6,000.0,036.7,029.9,20.4,0000.0,0017.49,0006.89,0005.39
2023-09-30 19:28:00,SystemResetWarning,0827.3,5.00,000.00,028.2,026.0,000.0,036.7,029.9,20.4,0000.0,0017.18,0006.85,0005.37
2023-09-30 19:29:00,SystemResetWarning,0827.3,5.00,000.00,028.2,026.4,000.0,036.7,030.0,20.5,0000.0,0017.62,0006.85,0005.37
2023-09-30 19:30:00,SystemResetWarning,0827.2,5.00,000.00,028.3,026.7,000.0,036.7,030.1,20.4,0000.0,0016.97,0006.83,0005.36
2023-09-30 19:31:00,SystemResetWarning,0827.2,5.00,000.00,028.3,027.0,000.0,036.7,030.2,20.4,0000.0,0016.70,0006.81,0005.37
2023-09-30 19:32:00,SystemResetWarning,0827.2,5.00,000.00,028.4,027.2,000.0,036.7,030.3,20.5,0000.0,0017.21,0006.87,0005.38
2023-09-30 19:33:00,SystemResetWarning,0827.2,4.99,000.00,028.4,026.3,000.0,036.7,030.2,20.8,0000.0,0017.23,0006.86,0005.36
2023-09-30 19:34:00,SystemResetWarning,0827.2,5.01,000.00,028.3,024.7,000.0,036.7,030.0,20.6,0000.0,0017.44,0006.82,0005.34
2023-09-30 19:35:00,SystemResetWarning,0827.1,5.01,000.00,028.3,024.5,000.0,036.6,029.9,20.7,0000.0,0018.43,0006.81,0005.32
2023-09-30 19:36:00,SystemResetWarning,0827.2,5.00,000.00,028.2,024.8,000.0,036.6,029.8,20.8,0000.0,0019.38,0006.78,0005.31
2023-09-30 19:37:00,SystemResetWarning,0827.1,4.99,000.00,028.2,025.2,000.0,036.6,029.8,21.0,0000.0,0019.77,0006.74,0005.30
2023-09-30 19:38:00,SystemResetWarning,0827.2,5.01,000.00,028.2,025.7,000.0,036.6,029.8,21.0,0000.0,0019.09,0006.75,0005.30
2023-09-30 19:39:00,SystemResetWarning,0827.1,5.00,000.00,028.2,026.1,000.0,036.7,029.9,21.2,0000.0,0018.80,0006.79,0005.30
2023-09-30 19:40:00,SystemResetWarning,0827.1,5.00,000.00,028.2,026.4,000.0,036.7,030.0,21.1,0000.0,0019.05,0006.76,0005.29
2023-09-30 19:41:00,SystemResetWarning,0827.1,5.00,000.00,028.2,026.7,000.0,036.7,030.1,21.3,0000.0,0018.94,0006.73,0005.29
2023-09-30 19:42:00,SystemResetWarning,0827.1,5.00,000.00,028.3,027.0,000.0,036.7,030.2,21.2,0000.0,0018.38,0006.68,0005.27
2023-09-30 19:43:00,SystemResetWarning,0827.1,4.99,000.00,028.3,026.3,000.0,036.7,030.2,21.4,0000.3,0017.92,0006.59,0005.26
2023-09-30 19:44:00,SystemResetWarning,0827.1,5.00,000.00,028.3,024.6,000.0,036.6,029.9,21.3,0001.3,0018.43,0006.61,0005.26
2023-09-30 19:45:00,SystemResetWarning,0827.1,5.01,000.00,028.2,024.4,000.0,036.5,029.8,20.4,0001.6,0017.81,0006.66,0005.28
2023-09-30 19:46:00,SystemResetWarning,0827.1,4.99,000.00,028.1,024.7,000.0,036.5,029.7,19.9,0001.7,0017.21,0006.63,0005.29
2023-09-30 19:47:00,SystemResetWarning,0827.0,5.00,000.00,028.1,025.1,000.0,036.6,029.7,20.0,0001.4,0016.33,0006.65,0005.31
2023-09-30 19:48:00,SystemResetWarning,0827.0,5.00,000.00,028.1,025.5,000.0,036.6,029.8,20.5,0000.5,0015.67,0006.70,0005.32
2023-09-30 19:49:00,SystemResetWarning,0827.0,5.00,000.00,028.1,025.9,000.0,036.6,029.8,20.3,0000.3,0015.89,0006.77,0005.32
2023-09-30 19:50:00,SystemResetWarning,0827.0,5.00,000.00,028.1,026.3,000.0,036.6,029.9,20.2,0000.2,0016.04,0006.76,0005.33
2023-09-30 19:51:00,SystemResetWarning,0827.0,5.00,000.00,028.2,026.6,000.0,036.6,030.0,20.0,0000.0,0016.50,0006.83,0005.35
2023-09-30 19:52:00,SystemResetWarning,0827.0,5.00,000.00,028.2,026.9,000.0,036.6,030.1,20.0,0000.0,0016.04,0006.87,0005.37
2023-09-30 19:53:00,SystemResetWarning,0826.9,4.99,000.00,028.3,027.0,000.0,036.6,030.2,20.0,0000.0,0016.50,0006.85,0005.38
2023-09-30 19:54:00,SystemResetWarning,0826.9,4.98,000.00,028.3,025.9,000.0,036.6,030.1,20.2,0000.0,0017.20,0006.93,0005.40
2023-09-30 19:55:00,SystemResetWarning,0826.9,5.01,000.00,028.2,024.6,000.0,036.6,029.8,19.7,0000.0,0017.76,0006.96,0005.41
2023-09-30 19:56:00,SystemResetWarning,0826.9,5.01,000.00,028.1,024.6,000.0,036.5,029.8,19.7,0000.0,0017.77,0006.92,0005.41
2023-09-30 19:57:00,SystemResetWarning,0826.9,5.00,000.00,028.1,025.0,000.0,036.5,029.7,19.8,0000.0,0018.37,0006.96,0005.42
2023-09-30 19:58:00,SystemResetWarning,0826.9,5.00,000.00,028.0,025.4,000.0,036.5,029.7,19.9,0000.0,0018.95,0006.99,0005.43
2023-09-30 19:59:00,SystemResetWarning,0826.9,5.00,000.00,028.1,025.8,000.0,036.5,029.8,19.9,0000.0,0019.07,0007.03,0005.43
